Location: Sungai Galai
(2.9000°N, 113.8833°E)
Time: 06:43:13
(UTC+00:00)

Daily predictions for brighter satellites

Satellite Brightness Start Highest point End
(mag) Time Altitude Azimuth Time Altitude Azimuth Time Altitude Azimuth
ARIANE 5 R/B 3.6 12:00:02 10° SW 12:00:17 12° SW 12:00:17 12° SW
SWIFT 3.5 12:02:34 10° WSW 12:05:25 39° W 12:05:25 39° W
CZ-2C R/B 3.9 12:05:29 17° NNW 12:08:49 36° WNW 12:13:32 10° SW
ATLAS 3B R/B 3.6 12:04:09 10° S 12:08:24 31° SE 12:08:24 31° SE
Lacrosse 4 Rocket 3.3 12:16:58 10° SW 12:19:18 27° WSW 12:19:18 27° WSW
ARIANE 5 R/B 3.8 12:18:22 10° W 12:21:46 28° W 12:21:46 28° W
USA 281 3.8 12:20:40 10° S 12:27:00 53° WSW 12:33:20 10° NW
H-2A R/B 4.0 12:34:00 10° SSW 12:38:34 28° WSW 12:43:06 10° NW
CENTAUR R/B 4.5 12:41:36 10° W 12:44:27 15° WNW 12:45:06 14° NW
ARIANE 5 R/B 3.5 12:25:03 10° W 12:52:40 57° S 12:52:40 57° S
Cosmos 2344 3.9 12:45:01 10° SSW 12:53:41 72° SW 12:53:41 72° SW
Cosmos 2263 Rocket 4.2 19:19:49 10° SSE 19:24:10 23° ESE 19:28:30 10° NE
Cosmos 2333 Rocket 4.3 19:29:17 21° SSE 19:29:17 21° SSE 19:31:02 10° SSE
COSMOS 2428 4.4 19:33:54 28° SE 19:33:54 28° SE 19:36:35 10° SSE
Sylda 5 4.0 19:32:58 46° E 19:32:58 46° E 19:42:01 10° E
ARIANE 5 R/B 4.5 19:39:48 39° SE 19:39:48 39° SE 19:46:46 10° ESE
BLOCK DM-SL R/B 4.2 19:42:34 48° ESE 19:42:34 48° ESE 19:53:51 10° E
USA 215 3.5 19:44:46 10° SSE 19:50:11 62° S 19:50:11 62° S
CZ-3C R/B 3.5 19:52:07 32° SSE 19:53:12 36° SE 20:07:32 10° E
Cosmos 2219 Rocket 3.7 19:58:58 26° S 19:58:58 26° S 20:01:23 10° S
Centaur D-1AR AC-41 4.4 19:54:22 44° SSW 19:56:00 57° SSE 20:18:29 10° ENE
CZ-3 R/B 4.5 19:48:48 33° NW 20:02:20 46° N 20:13:41 10° E
Atlas Centaur 2 4.5 20:07:09 13° NNE 20:07:09 13° NNE 20:07:45 10° NNE
Cosmos 2237 Rocket 3.4 20:03:47 29° NE 20:05:43 38° ENE 20:10:55 10° SE
Cosmos 2227 4.2 20:03:55 10° S 20:09:36 78° ESE 20:15:13 10° NNE
Lacrosse 5 4.2 20:15:52 13° NNE 20:15:52 13° NNE 20:16:21 10° NNE
ATLAS 2AS CENTAUR R/B 2.9 20:08:56 10° SSW 20:16:27 84° ESE 20:24:22 10° NNE
BLOCK DM-SL 4.0 20:15:24 58° NW 20:16:44 72° N 20:31:35 10° E
ATLAS 2A CENTAUR R/B 4.3 20:16:59 12° SE 20:17:06 12° SE 20:18:27 10° ESE
ARIANE 5 R/B 3.3 20:19:09 51° WNW 20:21:30 75° N 21:33:57 10° E
Cosmos 1980 3.9 20:22:02 42° N 20:23:54 66° ENE 20:29:28 10° SSE
Cosmos 1484 Rocket 3.8 20:23:29 34° ENE 20:24:29 43° ESE 20:28:06 10° S
ARIANE 44L R/B 3.2 20:27:45 44° NE 20:27:45 44° NE 20:29:39 10° ENE
Cosmos 405 4.2 20:27:20 40° E 20:27:20 40° E 20:30:22 10° SSE
Ariane H10 3.7 20:23:08 36° W 20:28:22 70° SSW 20:33:59 10° ESE
SJ-6F 4.4 20:34:19 76° SSW 20:34:19 76° SSW 20:38:13 10° SSW
SPELTRA 3.3 20:33:48 50° NNW 20:34:23 53° N 20:44:19 10° E
Stardust Del rocket 3.7 20:34:20 59° N 20:34:36 61° NNE 20:37:55 10° E
ADEOS 3.6 20:32:21 10° NNE 20:37:33 79° ESE 20:42:46 10° S
SWIFT 3.8 20:39:04 25° NNE 20:39:09 25° NNE 20:42:40 10° ENE
USA 234 3.6 20:34:06 10° NNE 20:40:05 40° NW 20:40:22 39° WNW
ALOS 2.1 20:35:52 10° NNE 20:40:32 90° WNW 20:45:13 10° SSW
ARIANE 5 R/B 4.1 20:32:54 22° W 20:41:39 72° S 20:46:04 10° E
BREEZE-M DEB (TANK) 2.3 20:42:52 53° SSE 20:42:52 53° SSE 20:46:15 10° SE
Cosmos 1386 Rocket 4.4 20:36:45 10° S 20:43:05 74° W 20:49:28 10° N
CZ-2C R/B 3.8 20:42:08 10° S 20:43:42 13° SE 20:45:14 10° ESE
Cosmos 2151 3.1 20:39:57 10° S 20:44:10 74° E 20:48:20 10° N
CZ-4C R/B 3.3 20:42:59 10° SSE 20:46:06 56° ENE 20:46:51 42° NNE
Cosmos 1441 Rocket 3.4 20:46:08 10° S 20:50:01 72° E 20:53:50 10° N
Cosmos 1867 3.5 20:48:22 29° NNW 20:51:11 86° WSW 20:56:36 10° SSE
ARIANE 5 R/B 4.1 19:33:15 10° W 20:51:58 89° S 20:56:59 10° E
SL-16 R/B 3.9 20:48:41 10° NNE 20:53:38 31° ENE 20:58:34 10° SE
Ariane H10 2.5 20:55:11 49° WSW 20:55:47 66° S 20:58:39 10° E
Cosmos 1842 Rocket 3.5 20:54:54 23° NNW 20:57:38 71° W 21:02:04 10° S
Meteor 1-31 Rocket 2.6 20:55:32 10° N 20:59:18 83° WNW 21:03:06 10° SSW
Okean 3 Rocket 4.2 20:56:13 10° S 21:00:32 56° E 21:04:48 10° NNE
GPS 2-14 Rocket1 4.3 20:59:29 21° N 21:00:48 24° NNE 21:04:11 10° ENE
Meteor 2-3 Rocket 4.4 20:56:40 10° S 21:02:10 57° E 21:07:42 10° NNE
GPS 2-12 Rocket1 4.3 21:03:39 20° NNW 21:05:32 27° NNE 21:09:21 10° ENE
Cosmos 1766 Rocket 4.0 21:02:19 10° S 21:06:44 64° E 21:11:08 10° NNE
SJ 16-02 1.2 21:02:26 10° SSW 21:06:49 75° WNW 21:11:12 10° N
Cosmos 2263 Rocket 3.3 21:03:21 10° SW 21:10:03 19° NW 21:12:13 10° NNW
METEOR-M 4.3 21:06:09 10° N 21:11:17 50° WNW 21:16:26 10° SSW
Lacrosse 5 rocket 2.6 21:12:37 22° W 21:13:45 25° WSW 21:17:21 10° S
Delta 7925 Rocket 4.2 21:09:31 10° SW 21:14:02 47° SSE 21:19:10 10° ENE
Nadezhda 1 Rocket 4.1 21:12:42 10° N 21:18:59 84° E 21:25:10 10° S
SEDSat Delta rocket 3.1 21:15:21 10° WSW 21:20:25 73° NW 21:24:51 10° NE
NATO 3D Rocket 3.8 21:16:13 18° WNW 21:21:27 83° NNE 21:26:39 10° ESE
Cosmos 1633 2.3 21:19:20 10° S 21:22:51 71° W 21:26:21 10° N
CZ-4B R/B 2.9 21:18:46 10° N 21:23:08 81° WNW 21:27:21 10° SSW
ADEOS Rocket 3.4 21:20:26 10° SSW 21:25:27 35° WSW 21:30:47 10° NW
CZ-4B R/B 3.0 21:22:38 10° SSE 21:25:42 35° E 21:28:40 10° N
CZ-3B R/B 2.8 21:37:51 14° NW 21:38:44 19° NNW 21:40:39 10° NE
CZ-4C R/B 2.8 21:36:00 10° WSW 21:39:24 21° WNW 21:42:55 10° NNW
Envisat 4.3 21:34:37 10° NNE 21:39:26 45° ESE 21:44:17 10° S
ERS-2 2.4 21:38:56 10° SSE 21:42:32 73° ENE 21:46:09 10° N
Meteor 2-17 Rocket 4.4 21:37:30 10° S 21:43:34 76° W 21:49:34 10° N
Cosmos 2237 Rocket 3.8 21:46:24 10° WNW 21:49:28 15° WSW 21:52:31 10° SW
H-2A R/B 2.7 21:46:32 10° N 21:50:22 74° W 21:54:11 10° SSW
YAOGAN 6 3.6 21:49:11 10° NNE 21:52:32 50° E 21:55:56 10° S
Hubble Space Telescope 1.3 21:48:59 10° NW 21:53:02 55° NNE 21:57:05 10° ESE
Cosmos 2221 4.4 21:51:56 10° WNW 21:53:25 12° W 21:54:54 10° WSW
Cosmos 1184 Rocket 4.1 21:51:45 10° SW 21:54:15 20° W 21:56:44 10° NW
Cosmos 773 Rocket 4.3 21:49:25 10° N 21:54:38 72° ENE 21:59:48 10° SSE
